This demonstration page uses our WeatherBlox Daily Observations layout. Learn more.

41.86663, -103.66717

Hourly Observations for June 6, 2019

Temp ( °F °C ) Dew Point ( °F °C ) Humidity (%) Winds ( mph kmh ) Pressure ( in mb ) Visibility ( mi km ) Precip ( " mm )
12:53 am 00:53 Clear 58 14.4 52 11.1 81 81 E 5 7 29.88 1012 10 16.0934 0 0
1:53 am 01:53 Clear 56 13.3 51 10.6 84 84 E 8 13 29.87 1011 10 16.0934 0 0
2:53 am 02:53 Clear 53 11.7 50 10 89 89 ENE 6 9 29.85 1011 10 16.0934 0 0
3:53 am 03:53 Clear 54 12.2 51 10.6 90 90 Calm 29.86 1011 10 16.0934 0 0
4:53 am 04:53 Clear 52 11.1 49 9.4 89 89 Calm 29.88 1012 10 16.0934 0 0
5:53 am 05:53 Sunny 52 11.1 50 10 93 93 NE 7 11 29.89 1012 10 16.0934 0 0
6:53 am 06:53 Sunny 61 16.1 55 12.8 81 81 Calm 29.88 1012 10 16.0934 0 0
7:53 am 07:53 Sunny 63 17.2 55 12.8 76 76 SE 6 9 29.88 1012 10 16.0934 0 0
8:53 am 08:53 Sunny 68 20 56 13.3 65 65 SE 6 9 29.89 1012 10 16.0934 0 0
9:53 am 09:53 Sunny 74 23.3 56 13.3 54 54 SE 9 15 29.87 1012 10 16.0934 0 0
10:53 am 10:53 Sunny 78 25.6 60 15.6 54 54 SE 9 15 29.86 1011 10 16.0934 0 0
11:53 am 11:53 Sunny 81 27.2 61 16.1 51 51 SE 14 22 29.85 1011 10 16.0934 0 0
12:53 pm 12:53 Sunny 83 28.3 61 16.1 48 48 SE 14 22 29.83 1010 10 16.0934 0 0
1:53 pm 13:53 Sunny 84 28.9 61 16.1 46 46 S 14 22 29.82 1010 10 16.0934 0 0
2:53 pm 14:53 Sunny 84 28.9 61 16.1 46 46 S 13 20 29.82 1010 10 16.0934 0 0
3:53 pm 15:53 Sunny 84 28.9 61 16.1 46 46 SSE 14 22 29.8 1009 10 16.0934 0 0
4:53 pm 16:53 Sunny 83 28.3 60 15.6 46 46 SSE 16 26 29.8 1009 10 16.0934 0 0
5:53 pm 17:53 Sunny 82 27.8 59 15 46 46 SE 15 24 29.8 1009 10 16.0934 0 0
6:53 pm 18:53 Sunny 79 26.1 56 13.3 45 45 SE 14 22 29.78 1009 10 16.0934 0 0
7:53 pm 19:53 Sunny 74 23.3 52 11.1 46 46 SE 12 19 29.79 1009 10 16.0934 0 0
8:53 pm 20:53 Clear 71 21.7 53 11.7 53 53 SE 9 15 29.79 1009 10 16.0934 0 0
9:53 pm 21:53 Clear 63 17.2 52 11.1 68 68 ESE 8 13 29.81 1009 10 16.0934 0 0
10:53 pm 22:53 Clear 61 16.1 52 11.1 72 72 ESE 6 9 29.8 1009 10 16.0934 0 0
11:53 pm 23:53 Clear 60 15.6 52 11.1 75 75 ESE 10 17 29.79 1009 10 16.0934 0 0

Powered by AerisWeather